Back to catalog

CZ-6A DEB

AlivePO
NORAD 61351·DEBRIS·🇨🇳 China

Launched Aug 6, 2024 from Taiyuan Satellite Launch Center

Loading…

Next Passes (next 24 hours)

TLE

FreshSource: Space-Track

Epoch: Sep 14, 2026, 00:05 UTC

1 61351U 24140VQ  26257.00388162  .00003470  00000-0  74424-3 0  9995
2 61351  89.0572 265.9369 0112086 352.3663   7.5834 14.54581362107492

Track CZ-6A DEB in real time with AllMySat

Download on the App Store